Temperature
11 12 12 13 13 14 14 15 14 14 16 16 16 16 16 17 16 16 17 17 17 17 17 19 19 20 20 20 20 19 19 19 19 18 18 18 18 18 18 17 17 16 15 15
11 12 13 14 14 14 14 14 13 15 17 17 17 17 16 17 16 17 17 17 17 17 18 18 19 19 19 19 19 19 19 19 19 18 18 17 17 17 17 16 15 15 14 14
12 13 14 14 14 14 14 13 14 16 17 17 17 16 17 16 16 16 16 16 16 17 17 17 18 18 19 19 19 19 18 18 18 18 17 17 16 16 15 15 15 14 14 13
12 14 14 14 14 14 14 15 15 17 15 14 16 14 15 15 15 15 15 16 16 15 16 16 17 17 17 17 17 17 17 17 17 16 16 16 15 14 14 14 14 13 13 13
12 14 14 14 14 14 15 16 17 16 15 14 14 14 14 14 14 14 14 16 15 15 15 15 16 16 16 16 16 16 16 16 15 15 15 14 14 13 13 13 13 13 12 12
14 14 15 15 15 15 16 16 15 12 12 14 14 13 14 13 14 14 13 15 15 14 15 15 15 15 15 15 15 15 15 15 14 14 14 14 13 13 13 13 13 12 12 12
14 15 15 15 15 16 15 13 13 13 12 13 14 13 15 14 14 14 13 14 15 15 15 15 15 15 15 15 14 14 14 13 13 13 13 13 12 12 12 12 11 11 11 11
13 13 15 15 15 14 13 13 13 13 13 13 15 14 15 14 15 16 16 15 15 15 15 15 15 14 14 13 13 13 13 12 12 12 12 12 11 11 11 10 10 10 10 10
13 13 14 15 15 14 13 13 13 13 14 14 14 14 15 12 12 13 14 14 15 16 16 15 14 14 13 12 12 12 12 12 11 11 11 11 10 10 10 9 9 9 9 9
13 12 14 14 15 15 14 13 12 13 14 14 15 15 15 14 12 12 12 13 15 16 15 14 14 13 12 12 11 11 11 11 10 10 10 10 10 9 9 8 8 8 8 8
13 12 13 14 14 14 15 15 13 12 12 13 14 14 14 14 13 12 12 14 16 16 15 14 13 12 11 11 10 10 10 10 10 10 9 9 9 9 8 8 7 7 7 7
13 11 11 13 14 14 14 14 13 13 13 12 12 13 14 14 13 13 14 15 16 15 14 13 12 11 11 10 10 10 10 9 9 9 9 8 8 8 7 7 6 6 6 6
13 12 12 13 13 13 14 14 13 12 12 11 12 14 14 13 13 14 15 15 15 14 13 12 11 11 10 10 10 9 9 9 8 8 8 7 7 7 6 6 5 5 5 5
13 12 13 13 13 12 13 14 13 12 12 12 12 14 15 15 14 14 15 15 14 13 12 11 11 10 10 9 9 9 8 8 8 7 7 6 6 5 5 4 4 4 4 4
13 13 13 14 14 13 14 13 13 12 12 12 13 13 14 14 14 14 15 14 13 12 11 11 10 9 9 8 8 8 7 7 7 6 5 5 4 4 4 4 4 3 3 2
12 13 13 13 13 14 14 13 13 12 12 12 12 12 13 14 14 13 13 13 12 11 11 10 9 8 8 8 7 7 6 6 5 5 4 4 4 3 3 3 2 2 1 1
11 12 12 12 12 13 13 12 12 12 12 12 12 13 13 12 11 11 12 12 12 11 10 9 8 7 7 7 6 6 5 4 4 3 3 3 3 2 2 1 1 0 -0 -1
11 10 9 10 11 12 12 12 12 12 13 12 13 12 12 10 9 11 11 12 11 10 8 7 7 7 6 5 4 4 3 3 3 2 2 2 2 1 1 0 -0 -1 -1 -2
9 9 8 8 10 10 11 12 12 13 12 11 11 11 9 10 10 9 10 10 10 8 7 7 6 5 4 4 3 2 2 2 2 2 1 1 0 -0 -1 -1 -2 -2 -2 -3
7 8 8 8 9 10 11 12 12 13 10 10 10 10 10 10 8 7 8 8 7 7 6 5 5 4 4 3 2 2 2 1 1 1 0 -0 -1 -2 -2 -2 -3 -3 -3 -3
7 7 7 7 8 8 9 10 12 11 10 9 10 10 10 9 8 9 8 7 7 6 6 5 4 3 3 2 1 1 1 0 -0 -0 -1 -1 -2 -3 -3 -3 -4 -4 -4 -4
7 6 6 6 7 8 10 11 9 9 9 9 10 9 9 9 9 8 8 7 6 5 4 4 3 2 1 1 1 0 -0 -1 -1 -1 -2 -2 -3 -3 -4 -4 -4 -4 -5 -5
6 7 7 7 8 9 10 10 10 10 9 9 9 9 8 8 8 7 7 6 5 4 3 2 1 0 0 -0 -0 -1 -1 -1 -2 -2 -2 -3 -3 -4 -4 -5 -5 -5 -6 -7
7 7 7 7 8 9 9 9 9 9 8 8 8 7 7 7 6 6 5 4 3 2 1 0 -0 -0 -0 -1 -1 -1 -2 -2 -2 -3 -3 -4 -4 -4 -5 -5 -6 -6 -7 -8
7 8 7 7 8 8 8 8 8 8 8 7 7 6 6 5 5 4 4 3 2 1 -1 -1 -1 -1 -1 -1 -1 -2 -3 -3 -3 -3 -3 -4 -5 -5 -6 -6 -6 -7 -8 -9
4 6 7 7 8 7 8 8 8 7 7 6 6 5 5 4 3 3 2 1 -0 -1 -1 -1 -1 -1 -1 -2 -2 -2 -3 -3 -4 -4 -4 -5 -6 -7 -7 -7 -7 -7 -8 -9
Wind_Speed
10 8 11 12 11 7 6 4 7 11 9 8 10 11 10 2 6 7 5 6 6 6 5 8 9 9 9 10 10 9 7 3 3 4 4 5 7 6 6 7 7 8 9 10
10 14 14 10 8 7 7 8 10 10 5 5 6 7 5 4 5 7 7 6 5 5 8 10 10 10 10 10 10 10 10 8 3 2 3 2 2 3 4 4 5 7 8 8
11 11 13 9 7 8 9 9 10 7 4 3 1 4 2 1 2 4 4 5 6 7 8 9 10 10 11 12 11 10 11 11 10 6 3 4 4 3 3 3 4 6 6 7
7 7 12 10 9 9 9 10 10 4 1 3 1 4 6 5 4 4 4 5 6 7 7 7 8 9 10 10 9 11 11 12 12 10 9 8 6 4 4 4 4 7 7 7
10 10 13 13 11 11 9 6 5 2 2 2 1 3 7 5 7 8 7 7 7 7 7 6 7 7 8 8 9 10 11 13 12 12 11 10 8 5 4 5 8 8 8 8
4 7 11 11 8 10 6 5 6 5 4 3 7 7 7 8 11 10 9 8 8 7 7 5 5 6 8 8 9 10 11 12 11 12 11 11 10 9 9 9 9 8 6 7
4 5 6 8 7 4 6 6 2 2 1 7 4 6 9 11 10 14 13 11 9 9 7 6 6 6 7 8 8 8 10 11 10 11 11 10 10 9 9 8 7 7 6 6
8 8 8 7 8 8 7 9 7 7 6 5 2 7 8 7 7 10 11 11 10 9 8 7 6 5 4 7 7 8 9 9 9 9 9 9 8 7 6 7 7 7 7 7
8 6 1 3 5 11 8 7 7 5 3 4 6 7 7 7 10 11 11 10 10 9 9 8 7 5 4 6 6 7 8 9 9 9 9 9 9 8 8 8 8 7 8 9
8 7 4 3 5 2 7 8 6 4 4 5 5 5 4 3 9 10 12 11 10 9 8 8 6 4 4 5 6 7 8 8 8 9 8 7 8 8 8 8 9 10 10 10
5 7 4 4 7 9 5 5 5 4 4 4 3 6 5 9 11 13 12 11 10 10 9 7 5 4 6 7 7 8 8 8 8 8 7 7 7 7 8 8 8 9 9 10
5 6 5 2 2 5 7 7 7 4 4 4 3 7 7 3 9 10 10 10 9 8 7 6 5 6 7 7 7 7 7 7 6 6 7 7 7 8 8 9 9 10 10 10
6 7 7 3 1 2 4 5 6 6 4 4 4 7 5 5 5 6 8 9 7 7 7 6 7 8 7 7 6 6 6 6 6 6 7 7 8 9 9 10 11 11 12 13
5 5 6 9 7 7 6 6 7 7 5 5 8 6 2 2 4 4 6 7 6 7 8 8 8 7 6 6 5 5 6 6 7 7 7 8 8 8 9 10 11 12 13 14
5 5 4 4 4 6 6 8 9 8 8 9 7 6 6 5 4 5 5 5 7 8 8 8 8 6 5 5 4 5 6 6 7 6 7 7 7 8 9 11 11 12 13 15
4 5 4 3 3 2 2 6 7 6 5 7 6 8 7 4 1 1 3 7 8 8 9 8 7 6 4 4 4 4 5 6 6 6 6 7 8 10 11 11 12 13 13 14
3 5 4 2 3 4 6 6 8 6 6 7 8 7 1 3 4 2 3 7 9 9 8 7 6 4 3 2 3 3 4 5 6 6 7 8 9 10 11 13 13 13 13 14
5 5 4 3 3 5 5 2 5 6 4 6 6 4 3 5 5 5 3 5 8 8 7 6 4 3 2 2 3 3 4 5 6 6 7 8 10 11 11 12 13 12 12 13
4 6 5 4 3 6 5 3 1 4 4 6 3 4 6 5 4 5 5 4 6 6 6 5 4 3 3 3 3 4 5 6 6 7 8 9 10 11 12 13 12 12 12 14
7 6 5 4 4 6 5 4 4 3 4 5 5 5 2 2 3 3 3 6 7 6 5 4 3 4 4 4 4 5 6 7 7 8 8 8 9 10 12 12 11 11 12 13
4 4 4 4 3 7 7 6 1 3 2 3 5 5 4 2 2 4 7 6 6 6 5 4 4 4 4 4 5 6 6 7 7 8 8 8 9 10 11 9 10 13 14 14
7 6 5 5 4 8 4 3 5 5 2 3 5 4 3 2 4 6 8 7 6 5 5 4 4 3 4 5 5 6 6 7 7 8 8 9 9 10 12 11 11 12 12 13
7 8 6 8 7 4 1 6 6 6 4 3 2 2 2 4 6 6 5 5 4 5 4 3 3 3 4 5 4 5 7 8 8 8 9 9 10 8 9 10 12 12 10 11
4 4 4 4 4 4 4 6 4 5 5 5 4 3 3 5 5 4 4 4 4 4 3 2 2 3 4 5 5 6 8 8 8 9 9 8 9 9 9 9 9 10 11 12
6 3 3 3 3 1 5 5 6 5 4 4 3 2 2 3 2 4 4 4 4 4 2 1 1 3 5 6 7 7 8 8 8 9 8 8 8 9 10 10 9 12 10 13
5 7 6 6 5 3 3 2 5 5 5 6 6 3 1 2 4 4 4 4 4 3 1 1 3 4 5 6 8 8 8 8 8 9 9 8 8 8 9 11 14 18 18 23
Wind_Direction
173 177 194 195 192 191 188 209 276 269 249 193 209 239 272 292 116 119 105 90 79 60 26 20 15 9 16 19 21 20 19 334 202 183 197 211 227 230 231 233 235 236 235 231
172 201 194 191 195 216 241 275 288 291 282 190 220 259 273 197 164 151 136 117 87 55 29 19 14 16 23 24 21 24 23 18 17 194 181 182 211 240 246 259 259 247 241 236
188 182 184 185 193 204 235 234 252 263 330 353 245 303 274 327 135 121 111 103 83 64 45 23 16 18 23 27 22 31 29 30 27 33 76 68 54 22 8 333 303 291 279 268
185 172 175 188 209 189 236 229 219 208 136 276 200 260 257 218 199 163 140 110 91 72 57 40 27 24 24 19 21 32 35 38 34 39 54 59 55 30 353 337 335 330 324 314
189 178 176 198 212 189 214 208 194 146 138 316 266 215 270 206 212 206 191 159 124 102 86 64 44 37 29 24 28 32 39 40 35 41 49 56 52 35 11 9 9 3 354 355
189 186 179 190 200 191 166 78 54 45 68 282 223 188 265 205 208 196 195 178 148 133 117 96 65 50 38 31 33 34 41 38 31 35 39 44 43 33 28 18 12 4 355 355
165 160 179 155 138 145 118 106 69 344 320 250 227 192 247 225 200 179 179 175 163 157 144 128 101 71 53 44 39 40 47 41 32 36 37 36 38 38 34 20 10 6 356 349
147 173 191 166 159 161 164 151 170 194 217 265 241 226 254 282 184 148 148 156 163 167 162 155 146 118 78 59 51 50 53 46 36 36 35 34 35 35 28 19 11 3 352 339
148 178 121 115 132 136 149 191 188 161 232 255 264 275 312 41 117 131 144 158 175 180 175 167 157 136 102 69 58 60 62 50 37 33 32 31 27 27 20 13 8 360 351 346
133 136 163 128 102 112 161 162 131 164 199 240 281 273 262 176 158 155 167 179 189 188 181 173 163 147 100 77 69 64 63 54 39 34 32 31 23 20 14 10 3 353 345 341
116 122 122 142 180 176 170 171 156 163 182 178 251 273 239 209 187 178 186 190 192 189 182 176 167 127 93 80 70 65 57 48 36 27 24 23 15 12 9 3 352 343 337 336
133 113 120 179 230 188 182 181 153 168 217 175 197 268 292 240 188 179 188 199 201 185 170 154 129 103 93 85 75 65 51 41 28 19 20 18 15 13 8 359 350 345 342 339
134 114 108 97 331 250 206 184 159 138 129 164 193 264 325 55 127 164 181 198 194 165 139 117 102 99 97 90 78 63 44 28 17 16 18 20 18 11 3 355 350 348 346 343
114 104 151 177 195 171 183 185 162 143 170 206 222 242 292 104 134 173 208 210 174 146 134 118 107 100 93 83 72 57 34 18 15 16 21 22 10 0 354 350 348 346 344 342
86 101 109 128 136 150 168 184 183 188 192 200 229 224 239 228 233 241 227 170 137 136 128 121 117 107 93 79 63 46 27 15 13 16 22 11 357 354 352 349 345 342 340 338
68 114 114 89 44 98 235 234 222 223 213 229 260 270 238 233 208 132 153 148 147 141 130 125 120 114 101 85 63 40 21 7 10 19 13 360 358 355 350 344 340 337 334 331
82 114 118 151 9 21 275 241 212 211 204 194 227 248 249 81 69 71 168 157 152 144 135 128 122 118 113 95 62 32 9 6 14 16 4 359 356 350 343 339 336 331 329 327
110 95 106 116 99 226 233 281 211 198 229 228 242 287 33 108 97 32 28 138 138 131 127 128 136 139 114 65 31 13 14 16 13 6 358 355 350 343 337 333 329 325 324 324
88 122 117 128 189 274 302 318 81 151 55 5 27 57 88 113 70 18 25 99 128 132 139 149 156 138 93 53 24 25 20 12 6 357 350 346 342 336 332 327 322 320 322 320
50 85 113 132 172 232 242 269 265 113 83 13 56 70 109 114 5 278 163 124 127 137 145 142 119 89 66 34 30 34 15 3 352 342 335 332 330 325 321 316 314 316 317 315
91 82 117 146 209 263 259 276 2 145 210 346 39 42 42 33 242 177 154 156 157 150 130 104 84 64 39 27 34 22 1 342 326 321 320 319 317 314 312 312 314 315 316 315
160 150 167 150 189 251 284 77 116 157 149 70 51 44 67 147 162 167 176 172 156 133 107 94 79 45 21 21 22 359 333 314 312 313 313 311 309 311 320 314 312 313 313 314
188 185 179 185 201 203 100 129 143 144 148 162 165 188 181 196 209 205 187 153 133 122 113 95 68 17 359 359 359 328 310 311 314 313 308 305 305 302 304 310 315 317 315 315
261 183 166 222 245 168 154 144 151 167 185 201 202 213 229 246 249 204 151 143 137 126 114 90 33 344 325 320 316 302 302 309 310 306 302 302 306 310 312 312 312 313 314 314
231 184 183 242 263 110 143 180 197 199 197 197 202 209 240 244 209 161 148 140 130 122 119 105 320 305 301 305 304 303 303 305 303 300 298 303 307 311 314 312 307 308 301 308
217 190 187 228 231 183 212 208 175 183 208 215 207 199 139 161 164 139 130 125 126 132 142 314 313 305 301 302 300 298 296 297 301 309 311 309 310 309 310 311 312 310 312 315
Height
1493 1500 1501 1502 1504 1506 1509 1510 1513 1505 1493 1494 1495 1492 1486 1484 1483 1483 1484 1484 1484 1484 1483 1482 1480 1479 1478 1477 1476 1475 1474 1474 1475 1477 1478 1480 1480 1481 1482 1482 1482 1481 1481 1479
1494 1495 1494 1497 1501 1504 1508 1512 1511 1500 1489 1490 1491 1490 1485 1484 1483 1483 1484 1484 1484 1484 1483 1482 1481 1479 1478 1476 1475 1474 1473 1473 1473 1473 1475 1476 1478 1479 1479 1480 1479 1478 1477 1474
1484 1487 1491 1496 1500 1504 1506 1510 1508 1501 1493 1490 1492 1494 1488 1485 1484 1484 1484 1484 1484 1484 1483 1482 1482 1480 1479 1477 1476 1475 1474 1473 1472 1472 1472 1473 1474 1475 1476 1476 1475 1473 1471 1469
1483 1483 1488 1494 1497 1501 1506 1498 1499 1497 1501 1504 1498 1508 1493 1488 1485 1484 1484 1484 1485 1485 1485 1484 1483 1482 1480 1479 1478 1477 1476 1474 1473 1472 1472 1472 1472 1473 1473 1471 1470 1468 1466 1464
1479 1479 1484 1490 1491 1494 1496 1491 1494 1495 1500 1504 1502 1506 1497 1488 1488 1485 1484 1484 1485 1486 1486 1485 1485 1484 1483 1482 1481 1480 1479 1477 1475 1474 1473 1472 1472 1471 1470 1469 1467 1465 1463 1460
1475 1475 1479 1482 1484 1488 1488 1493 1498 1504 1507 1511 1501 1507 1495 1487 1480 1480 1481 1482 1484 1486 1486 1486 1486 1485 1484 1484 1483 1482 1481 1479 1478 1476 1475 1473 1472 1471 1469 1468 1466 1463 1461 1457
1476 1475 1475 1476 1484 1485 1489 1504 1515 1514 1518 1511 1495 1499 1487 1470 1465 1469 1475 1479 1483 1485 1486 1486 1486 1486 1485 1485 1484 1483 1482 1480 1479 1478 1476 1474 1473 1471 1469 1467 1465 1461 1458 1454
1477 1481 1474 1473 1477 1484 1489 1497 1511 1515 1514 1505 1490 1493 1474 1465 1462 1466 1472 1477 1481 1483 1484 1485 1486 1486 1485 1485 1484 1483 1482 1481 1480 1478 1477 1475 1473 1471 1469 1466 1463 1460 1456 1452
1473 1478 1471 1470 1471 1477 1490 1493 1492 1500 1499 1501 1494 1482 1468 1465 1465 1468 1473 1476 1478 1481 1483 1484 1485 1485 1485 1485 1484 1484 1483 1482 1480 1478 1476 1474 1472 1470 1468 1465 1462 1458 1454 1449
1460 1475 1472 1471 1471 1475 1478 1483 1495 1500 1503 1504 1492 1483 1478 1472 1471 1471 1472 1474 1476 1479 1481 1483 1484 1485 1485 1485 1484 1484 1483 1481 1480 1477 1475 1473 1471 1468 1465 1462 1458 1454 1450 1445
1456 1470 1476 1474 1476 1478 1480 1482 1486 1494 1498 1502 1500 1489 1468 1466 1466 1467 1469 1472 1475 1477 1479 1481 1483 1484 1484 1484 1484 1483 1482 1480 1478 1476 1473 1471 1468 1465 1462 1458 1454 1449 1445 1440
1453 1467 1478 1475 1471 1472 1474 1476 1484 1493 1494 1498 1502 1491 1461 1461 1462 1465 1468 1471 1474 1476 1479 1481 1483 1483 1483 1483 1482 1481 1480 1478 1476 1473 1471 1468 1464 1461 1457 1453 1449 1444 1440 1435
1450 1463 1478 1481 1480 1475 1474 1474 1477 1484 1491 1498 1499 1485 1464 1462 1463 1466 1468 1471 1473 1475 1478 1480 1481 1481 1481 1481 1480 1479 1478 1476 1473 1471 1467 1464 1460 1456 1452 1448 1444 1440 1435 1430
1446 1458 1465 1473 1471 1471 1473 1473 1474 1480 1489 1491 1488 1477 1468 1466 1466 1467 1469 1469 1471 1474 1477 1478 1479 1479 1479 1479 1479 1477 1475 1473 1471 1468 1464 1461 1457 1453 1449 1444 1440 1435 1430 1425
1446 1457 1459 1461 1461 1465 1466 1468 1470 1474 1476 1482 1477 1476 1469 1466 1466 1466 1467 1468 1470 1474 1475 1476 1477 1477 1478 1478 1477 1475 1473 1470 1467 1464 1461 1457 1453 1449 1445 1440 1435 1431 1426 1420
1449 1457 1459 1463 1463 1463 1465 1466 1468 1470 1471 1474 1474 1472 1465 1464 1464 1465 1466 1467 1470 1472 1473 1475 1475 1476 1476 1476 1475 1473 1470 1467 1464 1461 1457 1453 1449 1445 1441 1436 1431 1426 1421 1416
1454 1457 1465 1470 1469 1465 1470 1465 1467 1467 1466 1468 1470 1466 1462 1464 1465 1465 1466 1467 1469 1470 1472 1473 1474 1475 1475 1474 1472 1470 1467 1464 1460 1457 1453 1449 1445 1441 1436 1432 1427 1422 1416 1411
1455 1462 1470 1473 1472 1477 1466 1460 1460 1463 1462 1462 1461 1461 1462 1464 1466 1467 1467 1468 1469 1470 1472 1473 1474 1474 1473 1471 1468 1466 1463 1460 1457 1453 1449 1445 1441 1436 1432 1428 1423 1418 1412 1407
1456 1463 1472 1479 1477 1474 1465 1460 1458 1460 1464 1464 1462 1463 1465 1465 1466 1468 1468 1469 1470 1471 1472 1473 1473 1471 1469 1467 1464 1462 1460 1456 1453 1449 1445 1441 1437 1432 1428 1423 1419 1413 1407 1401
1461 1463 1472 1478 1477 1476 1465 1457 1456 1458 1468 1468 1465 1465 1466 1466 1470 1470 1468 1468 1469 1470 1470 1470 1469 1467 1465 1463 1461 1459 1455 1452 1449 1445 1441 1438 1434 1429 1425 1420 1414 1409 1403 1396
1468 1470 1474 1476 1478 1473 1462 1456 1456 1466 1470 1468 1465 1465 1465 1466 1468 1467 1466 1467 1467 1467 1467 1467 1466 1464 1462 1460 1457 1455 1452 1449 1445 1441 1438 1434 1430 1426 1420 1415 1410 1404 1397 1390
1465 1471 1474 1476 1479 1474 1458 1456 1461 1466 1465 1465 1465 1465 1465 1465 1465 1465 1464 1464 1464 1464 1464 1463 1462 1461 1459 1457 1455 1452 1449 1445 1441 1437 1433 1430 1426 1421 1416 1410 1404 1398 1392 1385
1459 1459 1461 1464 1464 1458 1456 1457 1459 1461 1463 1463 1464 1464 1464 1464 1463 1463 1462 1462 1462 1462 1461 1460 1459 1458 1456 1454 1451 1448 1445 1441 1437 1433 1429 1425 1420 1416 1411 1405 1399 1392 1386 1380
1453 1451 1454 1456 1454 1455 1455 1456 1458 1459 1460 1461 1462 1462 1462 1462 1461 1460 1460 1460 1459 1459 1458 1457 1456 1454 1453 1451 1448 1445 1441 1437 1433 1429 1424 1419 1414 1409 1405 1400 1394 1388 1381 1376
1450 1450 1452 1453 1452 1453 1455 1456 1457 1457 1458 1459 1459 1459 1459 1458 1457 1457 1457 1457 1456 1455 1454 1454 1453 1451 1449 1447 1444 1441 1437 1433 1428 1423 1419 1414 1409 1404 1399 1394 1389 1383 1377 1374
1446 1447 1450 1451 1449 1451 1453 1454 1455 1455 1456 1456 1456 1455 1455 1454 1453 1453 1453 1453 1452 1452 1452 1451 1449 1447 1445 1442 1440 1437 1433 1428 1423 1418 1413 1409 1404 1399 1394 1388 1381 1375 1372 1367